[Iaude] MPEC S92: 2023 SN1 [a=1.62,e=0.58,i=1.5,H=29.3]
    mpec at marsden.cfa.harvard.edu 
    mpec at marsden.cfa.harvard.edu
       
    Tue Sep 19 18:16:00 EDT 2023
    
    
  
M.P.E.C. 2023-S92                            Issued 2023 September 19, 22:14 UT
     The Minor Planet Electronic Circulars contain information on unusual
         minor planets, routine data on comets and natural satellites,
         and occasional editorial announcements.  They are published
    on behalf of Division F of the International Astronomical Union by the
          Minor Planet Center, Smithsonian Astrophysical Observatory,
                          Cambridge, MA 02138, U.S.A.
			  
             Prepared using the Tamkin Foundation Computer Network
                              MPC at CFA.HARVARD.EDU
            URL https://www.minorplanetcenter.net/    ISSN 1523-6714
                                    2023 SN1                                    
Observations:
     K23S01N*1C2023 09 19.19218522 48 25.100+05 48 45.40         21.63GVES092G96
     K23S01N 1C2023 09 19.19787422 48 11.160+05 50 29.20               VES092G96
     K23S01N 1C2023 09 19.20356022 47 57.000+05 52 14.80         19.74GVES092G96
     K23S01N 1C2023 09 19.20924822 47 43.020+05 53 59.90         19.71GVES092G96
     K23S01N KC2023 09 19.24345022 46 14.552+06 04 54.66         19.75GVES092I52
     K23S01N KC2023 09 19.24432422 46 12.205+06 05 11.80         19.68GVES092I52
     K23S01N KC2023 09 19.24743222 46 03.832+06 06 13.25         19.79GVES092I52
     K23S01N KC2023 09 19.24830022 46 01.513+06 06 30.46         20.19GVES092I52
     K23S01N KC2023 09 19.32461622 42 20.790+06 33 20.77         19.51GVES092I52
     K23S01N KC2023 09 19.32506022 42 19.429+06 33 30.78         19.51GVES092I52
     K23S01N KC2023 09 19.32550522 42 18.072+06 33 41.00         19.58GVES092I52
     K23S01N KC2023 09 19.32595522 42 16.664+06 33 50.90         19.81GVES092I52
     K23S01N 1C2023 09 19.78186 22 06 17.60 +11 22 12.5          19.4 VXES092033
     K23S01N 1C2023 09 19.78209 22 06 15.53 +11 22 27.8          19.5 VXES092033
     K23S01N 1C2023 09 19.78233 22 06 13.41 +11 22 43.5          19.3 VXES092033
     K23S01N 1C2023 09 19.78270 22 06 10.17 +11 23 07.7          19.7 VXES092033
     K23S01N KC2023 09 19.80347 22 03 05.31 +11 49 17.6          19.2 GVES092104
     K23S01N KB2023 09 19.80671422 02 46.16 +11 52 25.7          19.8 GVES092I93
     K23S01N KC2023 09 19.80704 22 02 30.77 +11 53 29.4                VES092104
     K23S01N KB2023 09 19.80953822 02 18.87 +11 55 47.5          18.8 GVES092I93
     K23S01N KB2023 09 19.81327322 01 42.34 +12 00 17.2          18.6 GVES092I93
     K23S01N KB2023 09 19.81704322 01 04.97 +12 04 52.3          19.0 GVES092I93
     K23S01N KC2023 09 19.82947121 58 44.91 +12 20 09.6          18.5 GVES092587
     K23S01N KC2023 09 19.82956321 58 43.98 +12 20 16.3                VES092587
     K23S01N KC2023 09 19.82960821 58 43.45 +12 20 19.5                VES092587
     K23S01N KC2023 09 19.83652621 57 21.45 +12 27 13.2          18.6 GVES092G34
     K23S01N KC2023 09 19.83704321 57 15.84 +12 27 54.7          18.3 GVES092G34
     K23S01N pC2023 09 19.84539721 55 46.29 +12 41 05.6          18.8 GVES092L01
     K23S01N pC2023 09 19.84645121 55 34.47 +12 42 30.1          18.9 GVES092L01
     K23S01N KC2023 09 19.84750021 55 22.67 +12 43 53.9          18.9 GVES092L01
     K23S01N KC2023 09 19.84854621 55 10.91 +12 45 16.7          18.8 GVES092L01
     K23S01N pC2023 09 19.84958821 54 59.18 +12 46 39.8          19.0 GVES092L01
Observer details:
033 Karl Schwarzschild Observatory, Tautenburg.  Observers S. Melnikov, C.
    Hogner, F. Ludwig, M. Hartmann, B. Stecklum.  Measurer B. Stecklum.
    1.34-m f/3 Schmidt + CCD.
104 San Marcello Pistoiese.  Observers P. Bacci, M. Maestripieri.  Measurer P.
    Bacci.  0.60-m f/4.0 reflector + CCD.
587 Sormano.  Observers M. Calcagno, F. Manca, A. Testa.  Measurer F. Manca.
    0.5-m f/6.8 reflector + CCD.
G34 Oberfrauendorf.  Observer T. Felber.  0.35-m f/6.3 Schmidt-Cassegrain +
    CCD.
G96 Mt. Lemmon Survey.  Observer J. K. Hogan.  Measurers E. J. Christensen, D.
    Fay, J. B. Fazekas, D. C. Fuls, A. R. Gibbs, A. D. Grauer, H. Groeller, J.
    K. Hogan, R. A. Kowalski, S. M. Larson, G. J. Leonard, D. Rankin, R. L.
    Seaman, A. Serrano, F. C. Shelly, K. W. Wierzchos.  1.5-m reflector + 10K
    CCD.
I52 Steward Observatory, Mt. Lemmon Station.  Observer K. W. Wierzchos.
    Measurers E. J. Christensen, D. Fay, J. B. Fazekas, D. C. Fuls, A. R.
    Gibbs, A. D. Grauer, H. Groeller, J. K. Hogan, R. A. Kowalski, S. M.
    Larson, G. J. Leonard, D. Rankin, R. L. Seaman, A. Serrano, F. C. Shelly,
    K. W. Wierzchos.  1.0-m prime focus + CCD.
I93 St Pardon de Conques.  Observer F. Losse.  0.40-m f/3.7 reflector + CMO.
L01 Visnjan Observatory, Tican.  Observer K. Korlevic.  1.0-m f/2.9 reflector
    + CCD.
Orbital elements:
2023 SN1                                                 Earth MOID = 0.0018 AU
Epoch 2023 Sept. 13.0 TT = JDT 2460200.5                Bell                    
M 332.48159              (2000.0)            P               Q                  
n   0.47865220     Peri.  259.55229     +0.17216735     -0.98506768             
a   1.6185372      Node   180.53404     +0.91385106     +0.15981409             
e   0.5813396      Incl.    1.52150     +0.36774262     +0.06403994             
P   2.06           H   29.30          G   0.15           U   8                  
Residuals in seconds of arc
230919 G96 (2.1+  0.5-)   230919 I52  0.2-  0.0     230919 587  0.5-  0.4+
230919 G96  0.3+  0.5-    230919 033  0.4+  0.3-    230919 587  0.0   0.1+
230919 G96  2.4-  0.5+    230919 033  0.1-  0.1-    230919 587  0.8-  0.1-
230919 G96  0.1+  0.0     230919 033  0.0   0.3-    230919 G34  0.3+  0.6-
230919 I52  0.5+  0.2-    230919 033  0.6+  0.5-    230919 G34  0.3-  1.1+
230919 I52  0.4+  0.3-    230919 104  0.1-  1.1+    230919 L01  0.1+  0.9-
230919 I52  0.0   0.2-    230919 I93  0.1+  0.2+    230919 L01  0.2-  0.2-
230919 I52  0.4+  0.2-    230919 104  1.2-  0.2+    230919 L01  0.4-  0.0
230919 I52  0.3-  0.0     230919 I93  0.1+  0.0     230919 L01  0.2+  0.8-
230919 I52  0.2-  0.0     230919 I93  0.1+  0.0     230919 L01  1.2+  1.2-
230919 I52  0.1+  0.2+    230919 I93  0.3+  0.2-
Ephemeris:
2023 SN1                 a,e,i = 1.62, 0.58, 2                   q = 0.6776
Date    TT    R. A. (2000) Decl.     Delta      r    Elong.  Phase     V
2023 08 20    23 24 50.4 -00 32 55   0.3140  1.3026   154.6    19.5    28.3
...
2023 09 04    23 26 33.6 +00 13 31   0.1558  1.1615   168.0    10.4    26.3
...
2023 09 12    23 24 06.7 +00 45 47   0.07816 1.0845   174.6     5.1    24.4
...
2023 09 18    23 09 18.3 +02 54 22   0.02178 1.0266   170.8     9.0    21.7
2023 09 19    22 54 02.9 +05 04 31   0.01253 1.0170   165.9    13.9    20.6
2023 09 20    21 18 23.2 +17 20 01   0.0037291.0074   138.9    41.0    18.8
...
2023 09 26    11 36 11.0 +00 57 41   0.05318 0.9502     8.3   171.2
...
2023 10 04    11 32 22.2 +00 12 48   0.1301  0.8768    16.8   160.7
...
2023 10 19    11 39 25.1 -00 40 00   0.2900  0.7577    29.6   139.5    32.8
M. P. C. Staff               (C) Copyright 2023 MPC           M.P.E.C. 2023-S92
    
    
More information about the Iaude
mailing list